Temp
55 53 47 57 58 54 53 51 50 54 52 48 53 53 57 63 62 60 62 63 62 61 64 60 59 58 57 56 56 56 55 55 55 53 52 52 50 55 55 54 55 55 54 55
51 49 58 53 53 52 50 48 49 53 50 48 52 50 58 57 56 57 58 58 58 59 57 56 56 57 54 54 55 55 54 54 51 51 51 50 50 54 56 54 55 55 55 56
52 52 53 52 49 48 48 46 43 47 50 47 47 53 55 54 52 54 54 54 53 55 56 54 54 56 55 54 54 53 53 53 53 52 51 51 55 56 55 56 57 55 57 58
52 52 49 49 49 51 46 50 47 45 47 44 48 39 40 52 53 52 54 52 52 52 56 55 54 54 54 53 52 53 53 52 52 52 50 49 50 49 52 55 59 56 56 59
49 46 46 46 50 52 49 49 47 45 46 44 43 39 47 49 51 54 53 52 52 53 54 53 53 53 52 52 53 53 53 52 50 51 49 49 54 53 54 54 56 58 60 59
47 49 49 50 46 48 48 47 45 44 45 36 36 40 46 51 51 52 52 51 51 51 53 53 53 52 52 52 52 53 52 51 50 50 50 50 52 51 52 51 52 56 57 57
43 45 47 49 46 47 46 45 39 36 34 39 37 38 47 54 55 54 55 53 52 51 51 51 50 51 51 50 51 52 51 50 51 49 49 50 49 50 50 49 50 52 56 57
41 38 44 48 48 47 44 46 44 34 36 42 36 37 53 53 53 54 53 56 53 51 51 51 51 51 51 50 50 50 50 50 50 50 49 51 48 48 50 51 50 49 51 53
41 42 44 45 47 48 43 40 45 38 28 35 47 49 55 51 52 51 53 51 52 52 51 51 51 51 51 51 51 49 50 49 48 48 49 51 48 48 48 51 51 50 49 50
47 37 41 43 47 46 46 48 39 40 32 32 43 42 51 51 52 53 52 52 54 54 52 51 51 51 52 52 51 50 50 48 47 47 50 50 47 48 49 49 49 50 50 50
48 45 36 42 41 42 41 41 41 44 41 38 37 48 56 55 55 56 56 55 55 53 53 52 52 52 52 51 51 51 51 51 48 47 49 50 48 50 47 48 48 48 52 50
48 42 34 38 43 44 45 45 46 43 34 37 36 47 53 54 53 52 54 55 55 55 54 54 52 51 50 50 51 51 52 52 50 48 47 47 49 49 47 47 49 48 49 50
46 37 30 32 38 40 39 43 44 42 41 33 37 48 51 52 51 53 55 56 54 54 53 51 50 49 50 51 51 51 51 52 51 50 47 46 46 46 45 46 48 47 47 46
47 40 39 39 42 42 34 39 42 44 35 41 42 51 55 54 54 55 55 55 56 52 52 51 50 49 50 51 51 51 51 53 52 50 47 45 44 45 45 45 45 44 46 44
44 33 36 41 40 40 40 39 40 39 45 42 48 46 56 59 57 58 61 57 52 51 51 52 51 50 49 49 50 51 51 50 51 49 48 45 42 42 42 41 42 43 45 46
40 33 33 30 38 38 33 41 41 42 44 46 45 43 55 60 60 57 57 56 51 54 54 53 52 50 48 49 50 49 49 49 49 49 47 46 43 41 41 40 41 45 45 46
34 33 31 31 33 33 33 40 39 41 45 46 41 49 56 55 54 55 57 56 54 55 56 54 53 52 50 49 50 49 49 48 47 47 46 45 45 43 43 42 45 44 45 46
32 32 32 30 28 26 42 41 48 45 46 48 49 52 54 57 60 56 57 57 56 55 55 56 56 56 53 51 50 51 48 45 45 46 45 45 44 44 42 43 43 43 44 45
38 34 32 29 29 36 45 39 42 40 44 50 47 51 54 50 50 54 56 56 58 56 55 54 54 54 55 51 50 48 45 45 44 44 45 44 44 42 40 41 41 41 42 41
37 37 33 31 29 28 38 42 43 47 39 48 51 50 52 48 44 53 53 52 53 53 52 52 52 51 51 50 49 46 45 44 44 45 44 43 41 41 40 40 39 38 40 37
30 31 29 31 30 34 39 41 43 36 35 42 45 47 48 46 53 52 52 51 51 51 50 51 50 49 49 48 47 45 46 43 47 45 42 40 39 40 42 40 37 36 36 35
25 22 29 31 29 28 34 38 33 31 36 39 43 45 45 49 48 49 50 50 50 49 48 47 47 46 46 44 45 43 44 46 47 44 41 39 37 38 38 36 35 34 36 34
22 23 20 24 26 30 32 30 32 33 32 33 35 39 46 47 48 48 47 47 45 45 43 42 45 43 43 41 43 41 44 45 43 39 37 36 35 35 35 35 34 34 35 35
26 27 22 24 30 29 31 33 34 33 32 32 33 35 39 43 44 42 42 41 41 40 39 39 40 41 41 40 38 41 42 40 36 36 36 36 35 35 34 36 36 36 35 35
29 30 26 26 30 31 32 31 32 32 32 29 30 30 32 32 36 38 39 38 38 37 36 36 36 37 38 38 37 38 36 35 35 36 37 36 36 35 36 36 37 37 39 39
31 29 26 26 31 28 30 31 26 28 26 27 25 28 28 27 26 29 33 34 33 33 33 33 33 33 34 34 34 34 34 35 35 35 37 38 38 38 38 37 37 38 39 38
MSLP
1014.60 1014.10 1013.19 1012.56 1012.52 1012.56 1012.28 1012.42 1012.42 1012.41 1012.86 1012.86 1011.10 1009.63 1008.04 1007.70 1007.80 1007.79 1007.83 1008.21 1009.00 1009.84 1010.79 1012.04 1012.91 1013.56 1014.04 1014.25 1014.31 1014.25 1014.08 1014.05 1013.84 1013.41 1012.88 1012.24 1011.65 1010.88 1010.42 1010.16 1009.97 1009.99 1010.15 1010.16
1014.62 1013.25 1012.82 1013.10 1013.10 1013.00 1012.94 1012.87 1012.68 1012.54 1013.02 1012.96 1010.94 1008.88 1007.06 1006.99 1007.18 1007.52 1007.84 1008.19 1008.97 1009.81 1011.02 1011.99 1012.85 1013.49 1013.91 1014.10 1014.26 1014.20 1014.13 1014.09 1014.01 1013.73 1013.33 1012.82 1011.99 1011.07 1010.35 1009.99 1009.81 1009.82 1009.95 1010.02
1013.42 1013.28 1013.22 1013.24 1013.50 1013.44 1013.36 1013.23 1013.29 1013.27 1012.88 1012.76 1011.76 1008.56 1007.24 1007.26 1007.63 1007.91 1008.32 1008.82 1009.38 1009.90 1010.66 1011.74 1012.68 1013.28 1013.71 1013.92 1014.14 1014.16 1014.15 1014.05 1013.84 1013.70 1013.30 1012.55 1011.54 1010.71 1010.20 1009.69 1009.61 1009.79 1009.79 1009.77
1013.75 1013.62 1013.64 1013.67 1013.55 1013.54 1013.56 1013.50 1013.73 1013.58 1013.16 1012.75 1012.53 1010.39 1008.04 1007.18 1007.16 1007.60 1008.11 1008.66 1009.28 1010.04 1010.74 1011.66 1012.53 1013.18 1013.53 1013.90 1014.14 1014.11 1014.10 1014.04 1013.87 1013.67 1013.29 1012.63 1011.86 1011.11 1010.67 1009.92 1009.54 1009.70 1009.70 1009.63
1013.44 1013.69 1013.92 1013.93 1013.66 1013.66 1013.76 1013.98 1013.90 1013.79 1013.39 1013.24 1012.58 1012.08 1007.48 1007.28 1006.89 1007.27 1007.99 1008.81 1009.55 1010.24 1010.92 1011.74 1012.51 1013.15 1013.62 1013.93 1014.10 1014.08 1013.98 1013.98 1014.01 1013.70 1013.42 1012.69 1011.82 1011.30 1010.80 1010.32 1009.65 1009.59 1009.81 1009.44
1013.87 1014.22 1014.06 1013.98 1014.42 1014.37 1014.38 1014.26 1014.19 1014.02 1013.53 1013.12 1012.43 1011.93 1007.76 1006.86 1006.88 1007.25 1008.06 1008.93 1009.79 1010.52 1011.32 1012.06 1012.78 1013.37 1013.61 1013.87 1014.10 1013.97 1013.85 1013.90 1013.94 1013.75 1013.41 1012.76 1012.15 1011.63 1011.19 1010.74 1010.26 1009.89 1009.98 1009.92
1014.02 1014.09 1014.25 1014.21 1014.52 1014.91 1014.42 1014.13 1013.70 1013.50 1013.17 1012.23 1012.26 1011.53 1007.33 1006.61 1006.85 1007.23 1007.73 1008.82 1009.88 1010.74 1011.42 1012.10 1012.69 1013.13 1013.50 1013.70 1013.94 1013.88 1013.78 1013.78 1013.76 1013.70 1013.50 1012.94 1012.47 1012.09 1011.77 1011.48 1010.97 1010.72 1010.38 1010.39
1012.85 1013.80 1013.71 1013.73 1013.65 1013.49 1013.99 1013.72 1012.71 1012.40 1012.44 1011.90 1011.99 1009.53 1006.13 1006.30 1006.82 1007.43 1007.97 1008.64 1009.79 1010.69 1011.41 1011.89 1012.38 1012.90 1013.32 1013.57 1013.79 1013.86 1013.74 1013.76 1013.65 1013.63 1013.56 1013.13 1012.74 1012.50 1012.19 1011.98 1011.58 1011.43 1011.27 1011.18
1011.86 1012.67 1013.57 1013.81 1013.79 1013.72 1014.13 1013.79 1013.15 1012.57 1013.40 1011.89 1009.11 1007.37 1005.54 1006.02 1006.67 1007.27 1007.85 1008.65 1009.28 1010.13 1011.00 1011.57 1012.16 1012.62 1013.03 1013.36 1013.64 1013.88 1013.77 1013.81 1013.70 1013.68 1013.67 1013.33 1012.99 1012.77 1012.46 1012.33 1012.30 1012.02 1011.86 1011.73
1010.94 1012.44 1013.70 1014.04 1014.07 1013.97 1013.39 1013.11 1013.12 1012.62 1011.82 1010.38 1008.02 1007.06 1005.10 1005.30 1005.69 1006.54 1007.26 1007.94 1008.67 1009.58 1010.54 1011.28 1011.89 1012.40 1012.82 1013.25 1013.54 1013.81 1013.72 1013.71 1013.71 1013.63 1013.63 1013.63 1013.27 1013.01 1012.74 1012.57 1012.62 1012.55 1012.40 1012.24
1010.83 1011.55 1014.05 1014.33 1013.39 1012.63 1013.38 1012.83 1012.46 1011.74 1010.76 1009.35 1007.85 1005.46 1004.46 1004.69 1005.13 1005.58 1006.18 1007.21 1008.04 1008.95 1009.81 1010.73 1011.53 1012.22 1012.64 1013.06 1013.28 1013.52 1013.54 1013.51 1013.60 1013.60 1013.57 1013.65 1013.50 1013.22 1013.10 1012.96 1012.88 1012.89 1012.67 1012.70
1010.85 1011.52 1012.66 1012.96 1013.10 1012.97 1012.40 1011.72 1011.38 1010.69 1010.46 1009.54 1008.30 1005.22 1004.53 1004.92 1005.29 1005.64 1005.92 1006.71 1007.64 1008.49 1009.38 1010.29 1011.13 1011.87 1012.33 1012.63 1012.85 1013.12 1013.28 1013.26 1013.42 1013.52 1013.69 1013.83 1013.68 1013.31 1013.38 1013.28 1013.18 1013.30 1013.16 1013.04
1010.62 1011.05 1012.23 1012.99 1013.34 1013.10 1012.18 1011.35 1010.69 1010.60 1010.00 1008.76 1007.44 1004.99 1004.61 1004.84 1005.20 1005.52 1005.83 1006.43 1007.27 1008.06 1009.02 1009.90 1010.65 1011.26 1011.69 1012.07 1012.36 1012.70 1012.93 1013.03 1013.20 1013.32 1013.50 1013.83 1013.86 1013.60 1013.47 1013.56 1013.51 1013.70 1013.55 1013.48
1010.47 1010.57 1010.10 1009.88 1009.76 1009.86 1010.77 1009.97 1009.85 1009.70 1009.02 1007.40 1005.76 1004.65 1004.12 1004.36 1004.60 1005.00 1005.60 1006.29 1006.93 1007.70 1008.27 1009.02 1009.86 1010.45 1011.01 1011.49 1011.82 1012.10 1012.44 1012.69 1012.99 1013.15 1013.42 1013.78 1014.00 1013.94 1013.72 1013.82 1013.85 1013.86 1014.09 1013.91
1011.24 1010.99 1010.65 1010.20 1010.05 1009.82 1009.36 1008.82 1008.81 1008.28 1007.19 1006.27 1004.93 1004.51 1003.26 1003.45 1004.03 1004.54 1004.79 1005.64 1006.37 1006.96 1007.67 1008.15 1008.76 1009.39 1010.08 1010.65 1011.20 1011.55 1011.97 1012.29 1012.72 1013.00 1013.22 1013.68 1014.05 1014.26 1014.22 1013.96 1014.16 1014.08 1014.28 1014.35
1011.79 1011.58 1011.21 1010.54 1010.25 1009.95 1009.36 1008.45 1008.14 1007.68 1007.13 1006.20 1005.41 1004.21 1003.46 1002.93 1003.66 1004.08 1004.49 1005.02 1005.57 1006.02 1006.56 1007.14 1007.72 1008.40 1008.98 1009.65 1010.28 1010.91 1011.40 1011.83 1012.32 1012.69 1012.94 1013.49 1013.92 1014.30 1014.37 1014.35 1014.34 1014.50 1014.54 1014.67
1011.94 1011.84 1011.67 1011.16 1010.76 1010.31 1009.06 1006.49 1007.16 1006.78 1006.09 1005.53 1004.81 1002.86 1003.20 1002.91 1003.01 1003.14 1003.50 1004.25 1004.73 1005.33 1005.80 1006.27 1006.69 1007.29 1008.08 1008.80 1009.47 1010.10 1010.83 1011.57 1012.05 1012.38 1012.71 1013.23 1013.69 1014.10 1014.40 1014.70 1014.61 1014.42 1014.81 1014.93
1011.77 1011.68 1011.63 1011.19 1011.11 1009.36 1005.94 1005.84 1005.22 1004.94 1004.98 1004.99 1004.21 1003.21 1002.94 1002.64 1002.82 1003.14 1003.30 1003.54 1004.16 1004.76 1005.26 1005.58 1005.77 1006.27 1007.20 1008.06 1008.95 1009.77 1010.57 1011.22 1011.75 1012.16 1012.44 1012.95 1013.46 1013.85 1014.20 1014.55 1014.85 1015.06 1014.94 1015.12
1011.24 1011.34 1011.10 1010.71 1009.96 1007.62 1005.47 1006.10 1005.87 1005.52 1004.47 1004.38 1004.04 1003.15 1002.57 1003.46 1003.77 1003.05 1003.31 1003.57 1003.72 1004.28 1004.80 1005.06 1005.42 1005.75 1006.33 1007.23 1008.17 1009.15 1010.14 1010.81 1011.39 1011.66 1012.00 1012.49 1013.03 1013.59 1014.02 1014.33 1014.73 1015.15 1015.33 1015.68
1011.08 1010.82 1010.68 1010.33 1009.36 1008.24 1006.87 1006.24 1006.15 1005.85 1005.70 1005.72 1004.87 1003.41 1002.79 1004.14 1003.97 1002.57 1003.24 1003.75 1004.14 1004.46 1004.64 1004.89 1005.28 1005.66 1006.01 1006.60 1007.58 1008.46 1009.33 1010.20 1010.67 1011.05 1011.50 1011.91 1012.49 1013.03 1013.44 1013.75 1014.36 1014.97 1015.15 1015.50
1011.53 1011.17 1010.38 1010.17 1009.74 1009.06 1008.78 1008.10 1007.73 1008.45 1009.63 1007.94 1006.83 1005.38 1004.47 1003.82 1003.26 1003.59 1003.92 1004.46 1004.66 1004.78 1004.97 1005.05 1005.15 1005.44 1005.75 1006.45 1007.18 1007.85 1008.49 1009.05 1009.52 1010.61 1011.29 1011.82 1012.17 1012.52 1012.85 1013.56 1014.11 1014.66 1015.19 1015.60
1013.48 1013.16 1011.54 1011.19 1011.24 1011.35 1011.41 1010.24 1011.41 1013.25 1011.86 1010.61 1008.45 1006.81 1005.59 1005.04 1004.74 1004.78 1005.07 1005.32 1005.37 1005.37 1005.57 1005.73 1005.62 1005.62 1005.83 1006.43 1006.92 1007.37 1007.65 1008.19 1009.13 1010.06 1010.86 1011.46 1011.96 1012.29 1012.74 1013.23 1013.87 1014.41 1014.91 1015.50
1015.54 1015.40 1014.64 1013.74 1013.57 1014.12 1014.30 1014.71 1015.14 1014.62 1013.91 1012.98 1011.36 1009.25 1007.49 1006.61 1006.30 1006.12 1006.13 1006.26 1006.34 1006.28 1006.31 1006.34 1006.22 1006.10 1006.11 1006.41 1006.68 1007.16 1007.35 1007.97 1008.66 1009.48 1010.17 1010.89 1011.65 1012.26 1012.63 1013.05 1013.45 1014.05 1014.35 1014.65
1016.29 1016.42 1015.69 1015.00 1013.81 1014.76 1015.05 1015.04 1015.04 1014.92 1014.58 1014.14 1013.21 1011.41 1009.66 1008.48 1007.74 1007.39 1007.25 1007.09 1007.15 1007.23 1007.32 1007.32 1007.22 1006.96 1006.68 1006.66 1006.93 1006.96 1007.31 1007.83 1008.54 1009.05 1009.61 1010.40 1011.15 1011.89 1012.34 1012.68 1013.10 1013.39 1013.66 1013.97
1016.86 1016.14 1015.67 1015.37 1014.98 1014.96 1014.77 1015.39 1015.67 1015.50 1015.48 1014.86 1014.11 1013.41 1012.02 1010.82 1010.16 1009.74 1008.96 1008.72 1008.56 1008.49 1008.34 1008.11 1008.14 1008.05 1007.53 1007.29 1006.90 1007.18 1007.34 1007.54 1008.05 1008.70 1009.22 1009.80 1010.38 1010.87 1011.47 1011.75 1011.93 1012.15 1012.12 1012.23
1016.07 1015.79 1016.06 1015.47 1015.65 1016.14 1016.35 1016.41 1016.91 1016.41 1016.47 1016.07 1015.48 1014.32 1013.72 1013.00 1012.70 1012.28 1011.40 1010.92 1010.52 1009.99 1009.64 1009.37 1009.06 1008.91 1008.35 1007.91 1007.28 1007.38 1007.34 1007.37 1007.67 1008.07 1008.45 1008.74 1009.38 1010.01 1010.58 1011.08 1011.56 1011.67 1011.84 1012.12
Wind_Speed
3 7 10 14 11 2 1 3 8 5 0 6 12 20 24 18 17 18 17 15 15 13 9 8 8 6 3 0 5 7 10 10 8 8 8 7 8 8 6 5 5 4 3 4
5 12 9 4 6 4 3 4 7 6 1 4 13 26 23 10 6 7 8 9 12 12 11 10 9 6 3 2 5 7 8 8 7 6 7 5 7 7 7 5 4 0 1 3
10 1 7 5 6 6 5 5 3 5 8 2 12 10 5 1 3 5 6 5 4 11 14 12 10 7 4 1 5 7 7 7 8 9 7 7 6 4 4 4 2 2 2 2
8 4 6 7 6 8 5 5 3 2 4 5 6 9 8 3 8 5 4 4 3 9 12 12 11 8 4 1 3 5 6 7 7 9 7 8 4 4 4 6 4 3 3 4
4 9 8 6 4 9 0 4 3 1 1 4 3 4 8 2 4 3 3 3 5 9 12 12 10 7 5 1 3 4 5 5 7 7 6 6 6 5 5 4 4 5 4 4
1 1 3 1 3 1 10 4 2 1 2 4 2 3 7 3 3 1 3 4 7 10 10 10 8 6 5 2 2 3 5 5 6 7 6 6 7 8 7 8 5 5 3 2
3 4 2 3 6 3 3 4 2 3 3 3 2 4 12 5 4 2 7 8 9 10 10 10 10 7 5 4 2 2 4 4 5 6 6 5 6 6 6 6 5 6 5 5
13 8 12 9 4 6 10 4 4 6 3 2 1 8 5 1 1 3 2 7 9 10 9 10 9 8 6 4 3 2 3 4 5 5 6 4 5 3 3 5 4 5 4 4
8 5 1 2 2 2 8 8 2 3 2 3 5 8 12 7 5 6 8 7 12 12 12 11 10 8 7 6 4 2 2 2 2 4 4 3 3 3 4 5 4 4 5 5
6 2 1 3 3 2 4 6 4 2 5 6 4 6 8 3 9 10 10 13 12 12 12 11 10 9 7 6 5 4 3 0 1 3 3 2 3 1 3 4 4 5 4 6
6 4 4 4 12 13 7 6 3 2 4 3 2 4 2 3 3 7 13 11 12 13 13 12 10 9 8 6 6 5 4 3 1 0 2 4 2 3 3 3 3 3 5 5
7 3 6 6 1 3 4 8 10 6 6 3 1 5 3 3 1 2 7 9 9 10 11 11 11 10 9 9 7 7 5 4 2 2 0 3 2 3 3 3 4 3 4 5
9 5 5 1 2 2 9 11 8 3 1 8 6 4 1 3 4 4 4 9 10 11 11 11 11 12 12 11 9 8 7 5 4 3 3 2 3 2 3 3 4 4 4 6
5 4 6 9 2 7 9 18 20 17 6 7 11 6 4 4 5 5 6 7 9 10 13 13 13 13 13 12 11 10 9 7 6 5 5 3 3 3 3 3 4 5 4 6
3 4 5 7 1 4 4 10 22 24 21 15 9 19 18 10 10 9 6 9 10 11 13 15 15 15 15 14 13 11 10 9 7 7 6 6 3 2 3 5 4 6 6 6
2 2 1 3 3 4 5 11 17 23 21 21 13 16 12 15 10 12 10 11 10 11 13 15 15 15 16 16 15 13 12 11 10 9 8 6 5 3 3 4 6 6 7 7
8 5 2 3 1 1 10 19 16 12 15 22 22 25 7 10 12 11 12 12 12 11 11 12 15 16 15 16 15 16 14 11 11 10 10 9 8 6 6 4 6 9 7 7
6 6 3 1 1 8 4 4 14 22 17 21 16 17 11 18 12 6 7 11 11 10 9 11 11 12 14 14 15 13 12 13 11 11 11 10 10 9 8 7 7 5 6 7
10 7 4 6 7 9 11 5 8 13 12 18 23 23 19 4 1 10 9 9 8 6 6 6 6 9 12 15 15 14 12 12 12 13 12 11 11 10 9 8 8 6 7 5
13 10 7 5 5 9 4 3 2 3 4 16 14 22 18 8 9 12 6 7 7 6 4 4 4 5 9 12 14 15 14 14 14 14 12 11 10 10 10 10 9 5 5 5
5 5 12 9 5 5 12 10 5 7 6 22 16 15 8 10 7 2 6 3 1 1 2 2 1 5 8 10 13 15 15 16 16 12 10 9 10 11 11 9 5 7 6 6
4 5 4 6 6 9 23 6 7 10 15 20 19 13 7 1 3 2 1 1 3 4 4 4 2 2 5 9 12 13 16 14 13 12 11 11 10 8 7 9 6 6 7 7
1 3 5 6 6 3 5 9 7 10 10 20 21 21 8 5 4 4 3 5 6 7 6 4 3 2 3 7 10 11 11 11 12 11 12 11 9 8 8 9 9 7 8 8
3 2 4 9 3 14 3 12 15 15 14 17 19 18 19 15 8 5 4 5 5 5 6 6 6 4 2 5 6 8 6 7 8 11 11 9 10 10 9 7 7 8 9 9
6 8 4 10 12 9 2 15 15 15 15 17 17 16 19 19 18 12 6 7 7 7 7 7 7 6 6 4 4 6 5 8 10 10 10 10 9 11 10 10 10 11 12 13
4 4 4 5 7 1 9 13 12 13 14 15 18 20 15 15 16 17 13 11 11 11 9 8 7 8 9 8 5 4 6 8 9 10 9 10 9 9 9 9 9 14 14 15
Wind_Direction
169 214 214 213 213 265 138 245 268 258 94 277 266 280 282 280 260 257 258 242 230 211 191 169 165 164 186 235 341 342 343 347 339 330 329 326 316 319 316 296 290 271 223 228
175 236 231 101 164 182 201 262 265 277 222 277 301 292 290 300 270 258 266 247 236 210 176 160 165 167 164 344 349 349 350 344 330 322 321 299 299 300 302 290 289 214 198 219
219 41 150 160 167 189 217 226 228 273 314 219 305 279 306 146 272 253 242 260 224 206 183 165 167 170 155 22 6 356 346 336 328 329 319 310 306 302 320 352 63 82 168 199
241 146 163 182 206 194 236 203 203 261 318 299 1 289 301 319 294 249 236 218 179 181 181 161 162 163 154 91 2 358 347 343 330 328 328 324 319 338 320 339 87 102 183 177
175 176 178 198 214 189 94 143 138 131 278 308 158 246 270 329 288 229 194 152 149 165 162 160 161 152 144 126 351 352 352 353 335 331 334 319 340 351 335 1 37 80 101 160
82 317 214 179 80 30 138 115 95 130 236 246 84 260 280 235 247 191 153 147 147 153 155 151 143 150 150 149 296 2 9 4 342 336 335 338 1 12 10 356 10 103 91 67
156 202 173 171 119 101 187 179 243 237 202 261 123 221 257 262 239 262 176 165 158 158 161 164 168 173 169 180 276 353 2 353 340 340 334 5 4 15 19 4 359 28 99 108
194 222 178 172 224 184 184 241 219 248 231 42 128 232 252 201 232 165 107 174 166 174 179 183 179 176 177 188 224 293 2 354 348 345 336 31 18 9 24 26 14 37 46 35
182 219 103 170 156 198 157 212 19 102 82 278 219 255 269 218 220 207 209 182 191 191 190 192 185 185 184 193 200 273 351 22 345 328 335 25 43 18 33 35 60 49 31 35
192 148 246 143 160 107 238 147 145 226 214 232 207 274 250 200 210 204 208 209 199 195 193 194 192 189 189 197 191 222 241 249 314 323 323 322 89 32 50 42 54 91 71 82
151 218 133 168 212 180 159 192 215 261 231 227 259 235 210 206 190 215 211 206 200 198 197 194 193 192 193 198 198 209 224 200 167 10 325 295 125 130 92 79 53 43 103 110
176 124 165 195 31 294 233 199 195 211 190 237 8 275 153 243 219 231 214 196 197 203 197 194 192 189 194 203 197 208 211 206 173 136 55 294 267 126 121 112 104 71 90 91
177 192 132 131 215 196 219 201 213 117 76 199 181 229 139 215 221 210 195 199 197 191 191 192 192 196 199 204 200 200 205 201 184 165 147 202 268 164 125 120 111 111 116 103
152 191 228 216 146 145 194 200 198 202 205 188 224 261 225 237 227 197 206 213 207 201 195 196 199 201 201 204 201 196 200 199 185 168 145 151 202 224 160 133 123 115 131 122
210 243 220 251 295 196 217 199 196 208 211 211 210 223 239 214 196 205 207 196 196 207 205 205 205 202 200 200 201 198 199 190 186 177 160 146 154 181 171 130 120 119 129 131
201 245 42 272 199 218 260 232 211 218 225 241 257 261 239 257 258 237 227 206 207 211 215 217 216 207 204 200 200 196 195 191 184 183 166 157 150 156 151 140 134 134 134 135
173 176 116 254 14 177 272 226 199 203 215 217 226 236 221 257 235 243 221 216 215 214 223 224 223 216 208 201 197 197 192 181 187 185 167 167 164 161 155 155 156 144 142 143
169 152 166 131 132 220 268 346 213 207 205 215 240 247 237 237 238 240 216 210 218 227 235 239 238 224 212 203 198 194 186 184 186 189 178 171 172 167 159 157 154 144 147 148
185 174 183 195 211 319 290 193 173 184 242 218 227 244 243 180 237 251 222 229 241 237 243 243 246 235 209 196 193 184 183 182 186 192 189 179 178 172 169 169 165 155 150 142
195 199 202 167 207 214 353 14 266 184 268 18 257 245 259 153 248 260 184 187 193 210 216 232 246 221 205 196 182 183 188 188 197 196 194 181 177 177 179 174 166 164 162 146
190 201 208 211 218 279 358 341 322 192 338 329 326 298 234 201 232 16 133 161 179 319 321 318 230 212 209 181 178 192 191 198 201 191 187 184 183 185 185 174 160 164 164 157
355 301 194 204 205 229 359 34 22 328 321 324 335 338 296 262 90 78 60 331 331 330 334 337 301 226 182 179 183 195 205 196 193 182 185 190 192 187 178 173 166 162 163 170
161 44 309 336 55 355 32 66 7 359 350 351 343 335 350 7 16 356 2 6 359 359 347 332 313 306 190 182 193 206 211 193 187 181 192 195 186 186 180 178 176 170 181 184
52 72 340 314 139 335 266 15 12 4 355 347 345 346 340 335 335 339 355 7 13 14 10 352 338 336 297 201 202 220 191 170 174 193 196 188 189 192 190 191 189 193 192 196
279 319 276 280 275 299 71 6 354 348 355 347 350 359 3 8 360 351 357 11 18 7 4 2 355 338 331 316 223 219 194 169 187 199 201 197 198 195 199 207 201 205 211 202
205 234 222 277 14 289 313 341 9 1 356 352 348 342 357 13 356 350 348 360 357 350 352 349 350 333 325 320 309 248 201 188 189 198 200 201 200 200 204 207 222 229 236 215